Weather History for KHAE - May, 2014

Change the Weather History Date:

Sunday, May 25, 2014

  Actual Average Record
Temperature  
Mean Temperature 70 °F -  
Max Temperature 80 °F 75 °F 80 °F (2014)
Min Temperature 60 °F 55 °F 53 °F (2013)
Cooling Degree Days 5    
Growing Degree Days 20 (Base 50)    
Moisture  
Dew Point 58 °F    
Average Humidity 64    
Maximum Humidity 82    
Minimum Humidity 52    
Precipitation  
Precipitation 0.09 in - - ()
Sea Level Pressure  
Sea Level Pressure 30.06 in    
Wind  
Wind Speed 5 mph (SE)    
Max Wind Speed 12 mph    
Max Gust Speed 16 mph    
Visibility 10 miles    
Events Rain    
Averages and records for this station are not official NWS values.
T = Trace of Precipitation, MM = Missing Value Source: NWS Daily Summary

Daily Weather History Graph

Daily Weather History Graph

Search for Another Location

Airport or City:

Trip Planner

Search our weather history database for the weather conditions in past years. The results will help you decide how hot, cold, wet, or windy it might be!

Date:

Astronomy

May. 25, 2014 Rise Set
Actual Time 5:43 AM CDT 8:22 PM CDT
Civil Twilight 5:12 AM CDT 8:53 PM CDT
Nautical Twilight 4:32 AM CDT 9:33 PM CDT
Astronomical Twilight 3:48 AM CDT 10:17 PM CDT
Moon 3:47 AM CDT 5:23 PM CDT
Length of Visible Light 15h 41m
Length of Day
14h 38m
Waning Crescent, 10% of the Moon is Illuminated
May 25
Waning Crescent
May 28
New
Jun 5
First Quarter
Jun 12
Full
Jun 19
Last Quarter

Hourly Weather History & Observations

Time (CDT) Temp. Heat Index Dew Point Humidity Pressure Visibility Wind Dir Wind Speed Gust Speed Precip Events Conditions
12:15 AM 68.0 °F - 50.0 °F 52% 30.09 in 10.0 mi ESE 3.5 mph - N/A   Overcast
12:35 AM 66.2 °F - 50.0 °F 56% 30.09 in 10.0 mi Calm Calm - N/A   Overcast
12:55 AM 68.0 °F - 50.0 °F 52% 30.08 in 10.0 mi Calm Calm - N/A   Overcast
1:15 AM 68.0 °F - 50.0 °F 52% 30.08 in 10.0 mi East 3.5 mph - N/A   Overcast
1:35 AM 66.2 °F - 50.0 °F 56% 30.08 in 10.0 mi Calm Calm - N/A   Overcast
1:55 AM 68.0 °F - 50.0 °F 52% 30.08 in 10.0 mi Calm Calm - N/A   Overcast
2:15 AM 66.2 °F - 51.8 °F 60% 30.07 in 10.0 mi East 3.5 mph - N/A   Overcast
2:35 AM 66.2 °F - 51.8 °F 60% 30.07 in 10.0 mi Calm Calm - N/A   Overcast
2:55 AM 66.2 °F - 51.8 °F 60% 30.07 in 10.0 mi Calm Calm - N/A   Overcast
3:15 AM 66.2 °F - 51.8 °F 60% 30.08 in 10.0 mi WNW 6.9 mph - N/A   Overcast
3:35 AM 64.4 °F - 53.6 °F 68% 30.09 in 5.0 mi East 4.6 mph - 0.03 in Rain Rain
3:55 AM 62.6 °F - 55.4 °F 77% 30.08 in 10.0 mi East 5.8 mph - 0.08 in Rain Light Rain
4:15 AM 60.8 °F - 55.4 °F 82% 30.08 in 10.0 mi East 4.6 mph - N/A   Overcast
4:35 AM 62.6 °F - 53.6 °F 72% 30.08 in 10.0 mi East 5.8 mph - N/A   Overcast
4:55 AM 62.6 °F - 53.6 °F 72% 30.08 in 10.0 mi East 4.6 mph - N/A   Overcast
5:15 AM 62.6 °F - 53.6 °F 72% 30.08 in 10.0 mi East 6.9 mph - N/A   Overcast
5:35 AM 62.6 °F - 53.6 °F 72% 30.08 in 10.0 mi East 5.8 mph - N/A   Overcast
5:55 AM 62.6 °F - 53.6 °F 72% 30.08 in 10.0 mi East 5.8 mph - N/A   Overcast
6:15 AM 62.6 °F - 53.6 °F 72% 30.09 in 10.0 mi East 4.6 mph - N/A   Overcast
6:35 AM 62.6 °F - 53.6 °F 72% 30.09 in 10.0 mi East 4.6 mph - N/A   Overcast
6:55 AM 62.6 °F - 53.6 °F 72% 30.10 in 10.0 mi East 4.6 mph - N/A   Overcast
7:15 AM 62.6 °F - 55.4 °F 77% 30.10 in 10.0 mi East 4.6 mph - N/A   Overcast
7:35 AM 64.4 °F - 55.4 °F 73% 30.10 in 10.0 mi East 4.6 mph - N/A   Overcast
7:55 AM 64.4 °F - 55.4 °F 73% 30.10 in 10.0 mi East 5.8 mph - N/A   Overcast
8:15 AM 64.4 °F - 55.4 °F 73% 30.10 in 10.0 mi ESE 6.9 mph - N/A   Overcast
8:35 AM 64.4 °F - 53.6 °F 68% 30.11 in 10.0 mi SE 6.9 mph - N/A   Overcast
9:15 AM 66.2 °F - 55.4 °F 68% 30.11 in 10.0 mi ESE 11.5 mph 16.1 mph N/A   Mostly Cloudy
10:15 AM 68.0 °F - 55.4 °F 64% 30.10 in 10.0 mi SE 6.9 mph - N/A   Mostly Cloudy
10:35 AM 68.0 °F - 57.2 °F 68% 30.10 in 10.0 mi SE 6.9 mph - N/A   Scattered Clouds
10:55 AM 69.8 °F - 59.0 °F 68% 30.10 in 10.0 mi SE 9.2 mph - N/A   Scattered Clouds
11:15 AM 71.6 °F - 59.0 °F 64% 30.10 in 10.0 mi ESE 8.1 mph - 0.01 in   Scattered Clouds
11:35 AM 73.4 °F - 59.0 °F 61% 30.10 in 10.0 mi SE 6.9 mph - 0.01 in   Clear
11:55 AM 73.4 °F - 60.8 °F 65% 30.10 in 10.0 mi SSE 6.9 mph - 0.01 in   Clear
12:15 PM 77.0 °F - 60.8 °F 57% 30.09 in 10.0 mi SSE 9.2 mph - N/A   Clear
12:35 PM 75.2 °F - 59.0 °F 57% 30.09 in 10.0 mi SE 8.1 mph - N/A   Clear
12:55 PM 77.0 °F - 60.8 °F 57% 30.08 in 10.0 mi SSE 6.9 mph - N/A   Clear
1:15 PM 77.0 °F - 60.8 °F 57% 30.08 in 10.0 mi SSE 8.1 mph - N/A   Clear
1:35 PM 77.0 °F - 60.8 °F 57% 30.08 in 10.0 mi South 9.2 mph - N/A   Clear
1:55 PM 78.8 °F - 62.6 °F 57% 30.07 in 10.0 mi ESE 8.1 mph - N/A   Clear
2:15 PM 78.8 °F - 60.8 °F 54% 30.06 in 10.0 mi ESE 6.9 mph - N/A   Clear
2:35 PM 80.6 °F 81.8 °F 62.6 °F 54% 30.06 in 10.0 mi SE 5.8 mph - N/A   Clear
2:55 PM 80.6 °F 81.8 °F 62.6 °F 54% 30.05 in 10.0 mi SE 5.8 mph - N/A   Clear
3:15 PM 80.6 °F 81.8 °F 62.6 °F 54% 30.05 in 10.0 mi South 8.1 mph - N/A   Clear
3:35 PM 80.6 °F 81.8 °F 62.6 °F 54% 30.04 in 10.0 mi SE 6.9 mph - N/A   Clear
3:55 PM 80.6 °F 81.8 °F 62.6 °F 54% 30.04 in 10.0 mi SE 4.6 mph - N/A   Clear
4:15 PM 80.6 °F 81.8 °F 62.6 °F 54% 30.03 in 10.0 mi SSE 6.9 mph - N/A   Clear
4:35 PM 80.6 °F 81.8 °F 62.6 °F 54% 30.03 in 10.0 mi ESE 6.9 mph - N/A   Clear
4:55 PM 80.6 °F 81.8 °F 62.6 °F 54% 30.03 in 10.0 mi SE 9.2 mph - N/A   Clear
5:15 PM 80.6 °F 81.8 °F 62.6 °F 54% 30.02 in 10.0 mi ESE 9.2 mph - N/A   Clear
5:35 PM 80.6 °F 81.8 °F 62.6 °F 54% 30.01 in 10.0 mi SE 4.6 mph - N/A   Clear
5:55 PM 80.6 °F 81.8 °F 62.6 °F 54% 30.00 in 10.0 mi SE 6.9 mph - N/A   Clear
6:15 PM 80.6 °F 81.8 °F 62.6 °F 54% 30.00 in 10.0 mi SE 8.1 mph - N/A   Clear
6:35 PM 80.6 °F 81.8 °F 62.6 °F 54% 30.00 in 10.0 mi SE 5.8 mph - N/A   Clear
6:55 PM 78.8 °F - 62.6 °F 57% 30.00 in 10.0 mi SE 6.9 mph - N/A   Clear
7:15 PM 78.8 °F - 62.6 °F 57% 30.00 in 10.0 mi SE 5.8 mph - N/A   Clear
7:35 PM 77.0 °F - 62.6 °F 61% 30.01 in 10.0 mi ESE 5.8 mph - N/A   Clear
7:55 PM 75.2 °F - 62.6 °F 65% 30.01 in 10.0 mi SE 4.6 mph - N/A   Clear
8:15 PM 73.4 °F - 62.6 °F 69% 30.00 in 10.0 mi SE 3.5 mph - N/A   Clear
8:35 PM 73.4 °F - 62.6 °F 69% 30.00 in 10.0 mi SE 5.8 mph - N/A   Clear
8:55 PM 71.6 °F - 62.6 °F 73% 30.00 in 10.0 mi SE 4.6 mph - N/A   Clear
9:15 PM 71.6 °F - 62.6 °F 73% 30.02 in 10.0 mi SE 4.6 mph - N/A   Clear
9:35 PM 71.6 °F - 62.6 °F 73% 30.02 in 10.0 mi SE 3.5 mph - N/A   Clear
10:15 PM 69.8 °F - 62.6 °F 78% 30.03 in 10.0 mi SE 4.6 mph - N/A   Clear
10:35 PM 69.8 °F - 62.6 °F 78% 30.03 in 10.0 mi SSE 4.6 mph - N/A   Clear
10:55 PM 69.8 °F - 62.6 °F 78% 30.03 in 10.0 mi SE 4.6 mph - N/A   Clear
11:15 PM 69.8 °F - 62.6 °F 78% 30.03 in 10.0 mi SE 4.6 mph - N/A   Clear
11:35 PM 69.8 °F - 62.6 °F 78% 30.04 in 10.0 mi SE 4.6 mph - N/A   Clear
11:55 PM 69.8 °F - 62.6 °F 78% 30.04 in 10.0 mi SE 3.5 mph - N/A   Clear